Home   Weather   Bairnsdale   Past weeks

Flag for Australia Past Weather in Bairnsdale, Victoria, Australia — Yesterday and Last 2 Weeks

Now
53 °F

Overcast.


Feels Like: 50 °F
Forecast: 44 / 60 °F
Wind: 9 mph from West

Location: Bairnsdale Airport

Current Time: Sep 25, 2016 at 6:58:44 AM

Latest Report: Sep 25, 2016 at 6:00 AM


Visibility: N/A

Pressure: 29.71 "Hg

Humidity: 83%

Dew Point: 48 °F

Location of BairnsdaleLocation

Past Weather in Bairnsdale — Graph

°F

Bairnsdale Temperature Yesterday

Maximum temperature yesterday: 69 °F (at 12:00 PM)
Minimum temperature yesterday: 40 °F (at 5:00 AM)
Average temperature yesterday: 55 °F

High & Low Weather Summary for the Past Weeks

 TemperatureHumidityPressure
High69 °F (Sep 17, 2:00 PM)98% (Sep 14, 2:00 AM)30.22 "Hg (Sep 14, 2:00 AM)
Low38 °F (Sep 11, 6:00 AM)36% (Sep 17, 2:00 PM)29.62 "Hg (Sep 15, 5:00 AM)
Average53 °F78%29.93 "Hg
* Reported Sep 10 5:00 AM — Sep 25 5:00 AM, Bairnsdale, Weather by CustomWeather, © 2016

Note: Actual official high and low records may vary slightly from our data, if they occured in-between our weather recording intervals... More about our weather records

Advertising

Bairnsdale Weather History for the Previous 24 Hours

Scroll right to see more
 ConditionsComfort  
Time TempWeatherWind HumidityBarometerVisibility
5:00 AM
Sun, Sep 25
52 °FCool.7 mph90%29.70 "HgN/A
3:00 AM52 °FOvercast.5 mph95%29.70 "HgN/A
2:00 AM53 °FCool.3 mph94%29.70 "HgN/A
12:00 AM55 °FOvercast.9 mph92%29.73 "HgN/A
11:00 PM
Sat, Sep 24
54 °FCool.5 mph93%29.71 "HgN/A
9:00 PM56 °FPassing clouds.3 mph82%29.70 "HgN/A
8:00 PM58 °FCool.6 mph72%29.70 "HgN/A
6:00 PM58 °FCool.7 mph73%29.69 "HgN/A
5:00 PM62 °FCool.8 mph66%29.69 "HgN/A
3:00 PM68 °FPassing clouds.12 mph54%29.69 "HgN/A
2:00 PM67 °FMild.14 mph57%29.69 "HgN/A
12:00 PM69 °FMild.6 mph51%29.75 "HgN/A
11:00 AM65 °FMild.8 mph63%29.78 "HgN/A
9:00 AM56 °FCool.2 mph80%29.84 "HgN/A
8:00 AM49 °FCool.5 mph93%29.85 "HgN/A
6:00 AM41 °FPartly sunny.7 mph98%29.85 "Hg1 mi
Weather by CustomWeather, © 2016

See weather overviewHow to use our weather pages